Home > Weather > Sacramento > Past weeks

Flag for USA Past Weather in Sacramento, California, USA — Yesterday and Last 2 Weeks

Now
83 °F

Sunny.


Feels Like: 82 °F
Forecast: 60 / 102 °F
Wind: 7 mph from Southwest

Location: Sacramento Executive Airport

Current Time: Jul 24, 2016 at 9:32:45 PM

Latest Report: Jul 24, 2016 at 8:53 PM


Visibility: 10 mi

Pressure: 29.78 "Hg

Humidity: 40%

Dew Point: 56 °F

Location of SacramentoLocation

Past Weather in Sacramento — Graph

°F

Sacramento Temperature Yesterday

Maximum temperature yesterday: 102 °F (at 4:53 PM)
Minimum temperature yesterday: 59 °F (at 5:53 AM)
Average temperature yesterday: 80 °F

High & Low Weather Summary for the Past Weeks

 TemperatureHumidityPressure
High102 °F (Jul 23, 4:53 PM)87% (Jul 19, 5:53 AM)30.09 "Hg (Jul 19, 5:53 AM)
Low55 °F (Jul 10, 5:53 AM)9% (Jul 13, 4:53 PM)29.76 "Hg (Jul 16, 6:53 PM)
Average74 °F49%29.92 "Hg
* Reported Jul 9 7:53 PM — Jul 24 7:53 PM, Sacramento, Weather by CustomWeather, © 2016

Note: Actual official high and low records may vary slightly from our data, if they occured in-between our weather recording intervals... More about our weather records

Advertising

Sacramento Weather History for the Previous 24 Hours

Scroll right to see more
 ConditionsComfort  
Time TempWeatherWind HumidityBarometerVisibility
7:53 PM
Sun, Jul 24
90 °FSunny.6 mph31%29.77 "Hg10 mi
6:53 PM97 °FSunny.10 mph20%29.76 "Hg10 mi
5:53 PM101 °FSunny.12 mph17%29.76 "Hg10 mi
4:53 PM101 °FSunny.7 mph15%29.77 "Hg10 mi
3:53 PM101 °FSunny.7 mph14%29.78 "Hg10 mi
2:53 PM99 °FSunny.7 mph22%29.80 "Hg10 mi
1:53 PM97 °FSunny.9 mph24%29.80 "Hg10 mi
12:53 PM92 °FSunny.6 mph30%29.81 "Hg10 mi
11:53 AM89 °FSunny.8 mph30%29.82 "Hg10 mi
10:53 AM84 °FSunny.6 mph37%29.83 "Hg10 mi
9:53 AM80 °FSunny.6 mph41%29.83 "Hg10 mi
8:53 AM75 °FSunny.6 mph48%29.83 "Hg10 mi
7:53 AM69 °FSunny.7 mph57%29.82 "Hg10 mi
6:53 AM67 °FClear.5 mph61%29.81 "Hg10 mi
5:53 AM66 °FClear.3 mph61%29.79 "Hg10 mi
4:53 AM67 °FClear.No wind59%29.79 "Hg10 mi
3:53 AM69 °FClear.No wind55%29.78 "Hg10 mi
2:53 AM70 °FClear.3 mph53%29.77 "Hg10 mi
1:53 AM68 °FClear.3 mph59%29.78 "Hg10 mi
12:53 AM70 °FClear.3 mph53%29.78 "Hg10 mi
11:53 PM
Sat, Jul 23
73 °FClear.No wind48%29.78 "Hg8 mi
10:53 PM75 °FClear.3 mph43%29.79 "Hg10 mi
9:53 PM80 °FClear.3 mph36%29.79 "Hg10 mi
Weather by CustomWeather, © 2016

See weather overviewHow to use our weather pages